TimeCST,TemperatureF,Dew PointF,Humidity,Sea Level PressureIn,VisibilityMPH,Wind Direction,Wind SpeedMPH,Gust SpeedMPH,PrecipitationIn,Events,Conditions,WindDirDegrees,DateUTC
12:53 AM,36.0,26.1,67,30.38,10.0,Calm,Calm,-,N/A,,Clear,0,2012-11-18 06:53:00
1:53 AM,30.9,25.0,79,30.39,10.0,Calm,Calm,-,N/A,,Clear,0,2012-11-18 07:53:00
2:53 AM,32.0,26.1,79,30.39,10.0,Calm,Calm,-,N/A,,Clear,0,2012-11-18 08:53:00
3:53 AM,28.9,25.0,85,30.38,10.0,Calm,Calm,-,N/A,,Clear,0,2012-11-18 09:53:00
4:53 AM,28.9,25.0,85,30.38,10.0,Calm,Calm,-,N/A,,Clear,0,2012-11-18 10:53:00
5:53 AM,30.9,25.0,79,30.38,10.0,Calm,Calm,-,N/A,,Clear,0,2012-11-18 11:53:00
6:53 AM,27.0,23.0,85,30.39,8.0,Calm,Calm,-,N/A,,Clear,0,2012-11-18 12:53:00
7:53 AM,36.0,30.9,82,30.39,8.0,Calm,Calm,-,N/A,,Clear,0,2012-11-18 13:53:00
8:53 AM,45.0,33.1,63,30.39,10.0,Calm,Calm,-,N/A,,Clear,0,2012-11-18 14:53:00
9:53 AM,50.0,33.1,52,30.39,10.0,South,5.8,-,N/A,,Clear,170,2012-11-18 15:53:00
10:53 AM,54.0,33.1,45,30.38,10.0,SW,6.9,-,N/A,,Clear,220,2012-11-18 16:53:00
11:53 AM,57.0,30.0,36,30.35,10.0,South,8.1,-,N/A,,Clear,190,2012-11-18 17:53:00
12:53 PM,59.0,26.1,28,30.32,10.0,SSE,6.9,-,N/A,,Clear,160,2012-11-18 18:53:00
1:53 PM,61.0,28.9,30,30.31,10.0,ESE,5.8,-,N/A,,Clear,120,2012-11-18 19:53:00
2:53 PM,61.0,27.0,27,30.30,10.0,SSE,8.1,-,N/A,,Clear,150,2012-11-18 20:53:00
3:53 PM,60.1,28.9,31,30.30,10.0,SSE,6.9,-,N/A,,Clear,150,2012-11-18 21:53:00
4:53 PM,55.9,30.0,37,30.30,10.0,SSE,3.5,-,N/A,,Clear,150,2012-11-18 22:53:00
5:53 PM,52.0,30.0,43,30.30,10.0,SSE,5.8,-,N/A,,Clear,150,2012-11-18 23:53:00
6:53 PM,48.9,30.0,48,30.32,10.0,SE,5.8,-,N/A,,Clear,140,2012-11-19 00:53:00
7:53 PM,48.9,30.0,48,30.31,10.0,SSE,3.5,-,N/A,,Clear,150,2012-11-19 01:53:00
8:53 PM,46.9,30.9,54,30.32,10.0,Calm,Calm,-,N/A,,Clear,0,2012-11-19 02:53:00
9:53 PM,46.0,33.1,61,30.32,10.0,South,3.5,-,N/A,,Clear,180,2012-11-19 03:53:00
10:53 PM,48.0,34.0,58,30.30,10.0,South,3.5,-,N/A,,Clear,170,2012-11-19 04:53:00
11:53 PM,46.9,35.1,63,30.30,10.0,South,4.6,-,N/A,,Clear,170,2012-11-19 05:53:00